Regional Weather Roundup
Issued by NWS

Home | Current Version | Previous Version | Text Only | Print | Product List | Glossary On
Versions: 1 2 3 4 5 6 7 8 9 10 11 12 13 14 15 16 17 18 19 20 21 22 23 24 25 26 27 28 29 30 31 32 33 34 35 36 37 38 39 40 41 42 43 44 45 46 47 48 49 50
000
ASUS43 KTOP 230408
RWRKS

WEATHER ROUNDUP FOR KANSAS
NATIONAL WEATHER SERVICE GOODLAND KS
1100 PM CDT WED OCT 22 2014

NOTE:  "FAIR" INDICATES FEW OR NO CLOUDS BELOW 12,000 FEET WITH NO
SIGNIFICANT WEATHER AND/OR OBSTRUCTIONS TO VISIBILITY.

KSZ001>006-013>018-027>032-041>047-230500-
NORTHWEST KANSAS

CITY           SKY/WX    TMP DP  RH WIND       PRES   REMARKS
GOODLAND       PTCLDY    50  45  83 SE7       30.11R
HAYS           PTCLDY    61  54  77 S10       30.05S
HILL CITY      CLEAR     54  52  93 CALM      30.07R
RUSSELL        MOCLDY    61  56  83 S12       30.04R
$$

KSZ061>065-074>080-084>089-230500-
SOUTHWEST KANSAS

CITY           SKY/WX    TMP DP  RH WIND       PRES   REMARKS
DODGE CITY     CLOUDY    61  57  87 S17       30.08R
ELKHART          N/A     58  53  84 S8          N/A
GARDEN CITY    CLOUDY    60  57  89 S12       30.07S
GREAT BEND     MOCLDY    61  54  77 S13       30.06S
LIBERAL        CLOUDY    63  55  77 S14       30.09R
PRATT          PTCLDY    59  55  88 S15       30.09R
$$

KSZ066>073-081>083-090>101-230500-
SOUTHEAST KANSAS

CITY           SKY/WX    TMP DP  RH WIND       PRES   REMARKS
CHANUTE        MOCLDY    63  59  87 SE8       30.12R
COFFEYVILLE    MOCLDY    64  57  78 S7        30.12R
HUTCHINSON     MOCLDY    63  58  83 S9        30.08S
MEDICINE LODGE   N/A     62  57  83 S12       30.08F
NEWTON         CLOUDY    61  55  82 SW7       30.12R
PARSONS        MOCLDY    64  57  78 CALM      30.13R
WICHITA INTL   CLOUDY    66  57  72 SW10      30.10R
WICHITA JABRA  CLOUDY    67  57  70 SW14      30.10R
WICHITA MCCONL CLOUDY    66  60  79 SW16      30.11R
WINFIELD       LGT RAIN  64  60  87 SW10      30.13R
$$

KSZ007>012-019>026-033>040-048>060-102>105-230500-
NORTHEAST KANSAS

CITY           SKY/WX    TMP DP  RH WIND       PRES   REMARKS
CONCORDIA      LGT RAIN  62  60  93 S5        30.06R
EMPORIA        LGT RAIN  64  58  80 S10       30.09S
LAWRENCE       MOCLDY    62  54  74 SE8       30.10S
MANHATTAN      LGT RAIN  64  60  87 CALM      30.07S
MARYSVILLE     HVY RAIN  61  59  94 SW7       30.09R
OLATHE IND     MOCLDY    62  52  69 SE12      30.12S
OLATHE EXE     PTCLDY    61  53  75 S9        30.11S
SALINA         CLOUDY    63  58  83 S7        30.06R
TOPEKA BILLARD CLOUDY    67  58  72 SE14      30.08S
TOPEKA FORBES  CLOUDY    65  57  75 SE10      30.08S
$$



USA.gov is the U.S. government's official web portal to all federal, state and local government web resources and services.